Tillbaka till svenska Fidonet
English   Information   Debug  
FILM   0/18
FNEWS_PUBLISH   4708
FN_SYSOP   42000
FN_SYSOP_OLD1   71952
FTP_FIDO   0/2
FTSC_PUBLIC   0/13896
FUNNY   0/4886
GENEALOGY.EUR   0/71
GET_INFO   105
GOLDED   0/408
HAM   2103/16254
HOLYSMOKE   0/6791
HOT_SITES   0/1
HTMLEDIT   0/71
HUB203   466
HUB_100   264
HUB_400   39
HUMOR   0/29
IC   0/2851
INTERNET   0/424
INTERUSER   0/3
IP_CONNECT   719
JAMNNTPD   0/233
JAMTLAND   0/47
KATTY_KORNER   0/41
LAN   0/16
LINUX-USER   0/19
LINUXHELP   0/1155
LINUX   0/22257
LINUX_BBS   0/957
mail   18.68
mail_fore_ok   249
MENSA   0/341
MODERATOR   0/102
MONTE   0/992
MOSCOW_OKLAHOMA   0/1245
MUFFIN   0/783
MUSIC   0/321
N203_STAT   938
N203_SYSCHAT   313
NET203   321
NET204   69
NET_DEV   0/10
NORD.ADMIN   0/101
NORD.CHAT   0/2572
NORD.FIDONET   189
NORD.HARDWARE   0/28
NORD.KULTUR   0/114
NORD.PROG   0/32
NORD.SOFTWARE   0/88
NORD.TEKNIK   0/58
NORD   0/453
OCCULT_CHAT   0/93
OS2BBS   0/787
OS2DOSBBS   0/580
OS2HW   0/42
OS2INET   0/37
OS2LAN   0/134
OS2PROG   0/36
OS2REXX   1/113
OS2USER-L   207
OS2   0/4806
OSDEBATE   0/18996
PASCAL   0/490
PERL   0/457
PHP   0/45
POINTS   0/405
POLITICS   0/29554
POL_INC   0/14731
PSION   103
R20_ADMIN   1129
R20_AMATORRADIO   0/2
R20_BEST_OF_FIDONET   14
R20_CHAT   0/893
R20_DEPP   0/3
R20_DEV   399
R20_ECHO2   1623
R20_ECHOPRES   0/35
R20_ESTAT   0/719
R20_FIDONETPROG...
...RAM.MYPOINT
  0/2
R20_FIDONETPROGRAM   0/22
R20_FIDONET   0/248
R20_FILEFIND   0/24
R20_FILEFOUND   0/22
R20_HIFI   0/3
R20_INFO2   3513
R20_INTERNET   0/12940
R20_INTRESSE   0/60
R20_INTR_KOM   0/99
R20_KANDIDAT.CHAT   42
R20_KANDIDAT   28
R20_KOM_DEV   112
R20_KONTROLL   0/13360
R20_KORSET   0/18
R20_LOKALTRAFIK   0/24
R20_MODERATOR   0/1852
R20_NC   76
R20_NET200   245
R20_NETWORK.OTH...
...ERNETS
  0/13
R20_OPERATIVSYS...
...TEM.LINUX
  0/44
R20_PROGRAMVAROR   0/1
R20_REC2NEC   534
R20_SFOSM   0/341
R20_SF   0/108
R20_SPRAK.ENGLISH   0/1
R20_SQUISH   107
R20_TEST   2
R20_WORST_OF_FIDONET   20
RAR   0/9
RA_MULTI   106
RA_UTIL   0/162
REGCON.EUR   0/2066
REGCON   0/13
SCIENCE   0/1206
SF   0/239
SHAREWARE_SUPPORT   0/5146
SHAREWRE   0/14
SIMPSONS   0/169
STATS_OLD1   0/2539.065
STATS_OLD2   0/2530
STATS_OLD3   0/2395.095
STATS_OLD4   0/1692.25
SURVIVOR   0/495
SYSOPS_CORNER   0/3
SYSOP   0/84
TAGLINES   0/112
TEAMOS2   0/4530
TECH   0/2617
TEST.444   0/105
TRAPDOOR   0/19
TREK   0/755
TUB   0/290
UFO   0/40
UNIX   0/1316
USA_EURLINK   0/102
USR_MODEMS   0/1
VATICAN   0/2740
VIETNAM_VETS   0/14
VIRUS   0/378
VIRUS_INFO   0/201
VISUAL_BASIC   0/473
WHITEHOUSE   0/5187
WIN2000   0/101
WIN32   0/30
WIN95   0/4291
WIN95_OLD1   0/70272
WINDOWS   0/1517
WWB_SYSOP   0/419
WWB_TECH   0/810
ZCC-PUBLIC   0/1
ZEC   4

 
4DOS   0/134
ABORTION   0/7
ALASKA_CHAT   0/506
ALLFIX_FILE   0/1313
ALLFIX_FILE_OLD1   0/7997
ALT_DOS   15/152
AMATEUR_RADIO   422/1039
AMIGASALE   0/14
AMIGA   0/331
AMIGA_INT   0/1
AMIGA_PROG   0/20
AMIGA_SYSOP   0/26
ANIME   0/15
ARGUS   0/924
ASCII_ART   0/340
ASIAN_LINK   0/651
ASTRONOMY   0/417
AUDIO   0/92
AUTOMOBILE_RACING   0/105
BABYLON5   0/17862
BAG   135
BATPOWER   0/361
BBBS.ENGLISH   0/382
BBSLAW   0/109
BBS_ADS   0/5290
BBS_INTERNET   0/507
BIBLE   0/3563
BINKD   0/1119
BINKLEY   0/215
BLUEWAVE   0/2173
CABLE_MODEMS   0/25
CBM   0/46
CDRECORD   0/66
CDROM   0/20
CLASSIC_COMPUTER   0/378
COMICS   0/15
CONSPRCY   0/899
COOKING   38945
COOKING_OLD1   0/24719
COOKING_OLD2   0/40862
COOKING_OLD3   0/37489
COOKING_OLD4   0/35496
COOKING_OLD5   9370
C_ECHO   0/189
C_PLUSPLUS   0/31
DIRTY_DOZEN   0/201
DOORGAMES   0/2138
DOS_INTERNET   0/196
duplikat   6101
ECHOLIST   0/18295
EC_SUPPORT   0/318
ELECTRONICS   0/359
ELEKTRONIK.GER   1534
ENET.LINGUISTIC   0/13
ENET.POLITICS   0/4
ENET.SOFT   0/11701
ENET.SYSOP   34187
ENET.TALKS   0/32
ENGLISH_TUTOR   0/2000
EVOLUTION   0/1335
FDECHO   0/217
FDN_ANNOUNCE   0/7068
FIDONEWS   24649
FIDONEWS_OLD1   0/49742
FIDONEWS_OLD2   0/35949
FIDONEWS_OLD3   1736/30874
FIDONEWS_OLD4   0/37224
FIDO_SYSOP   12899
FIDO_UTIL   0/180
FILEFIND   110/209
FILEGATE   0/212
Möte HAM, 16254 texter
 lista första sista föregående nästa
Text 4265, 908 rader
Skriven 2011-01-21 01:01:27 av Amsat List (1:323/120.0)
Ärende: [keps]  orb11020.amsa
=============================
[keps]  orb11020.amsa

Return-Path: <keps-bounces@amsat.org>
X-Rcpt: craig.healy@chowda.com
X-UIDL: 1295589756.2455

SB KEPS @ AMSAT  $ORB11020.O
Orbital Elements  11020.OSCAR

HR AMSAT ORBITAL ELEMENTS FOR OSCAR SATELLITES
FROM WA5QGD FORT WORTH,TX January 20, 2011
Send Subscribe/unsubscribe to KEPS at http://www.amsat.org/mailman/listinfo/kep
BID: ORB11020.O
TO ALL RADIO AMATEURS BT

Satellite: AO-07
Catalog number: 07530
Epoch time:      11019.55721521
Element set:    0983
Inclination:      101.3955 deg
RA of node:       031.9600 deg
Eccentricity:    0.0011690
Arg of perigee:   210.7662 deg
Mean anomaly:     149.2728 deg
Mean motion:   12.53580846 rev/day
Decay rate:       -2.7e-07 rev/day^2
Epoch rev:           65556
Checksum:              289

Satellite: FO-29
Catalog number: 24278
Epoch time:      11019.93013909
Element set:    0503
Inclination:      098.5222 deg
RA of node:       184.2024 deg
Eccentricity:    0.0349751
Arg of perigee:   281.6712 deg
Mean anomaly:     074.5379 deg
Mean motion:   13.52956669 rev/day
Decay rate:        3.9e-07 rev/day^2
Epoch rev:           71241
Checksum:              318

Satellite: SO-33
Catalog number: 25509
Epoch time:      11019.36822700
Element set:     885
Inclination:      031.4342 deg
RA of node:       005.9707 deg
Eccentricity:    0.0353537
Arg of perigee:   020.1957 deg
Mean anomaly:     341.2276 deg
Mean motion:   14.28361434 rev/day
Decay rate:       3.01e-06 rev/day^2
Epoch rev:           63898
Checksum:              292

Satellite: RS-22
Catalog number: 27939
Epoch time:      11020.61586935
Element set:     918
Inclination:      097.8641 deg
RA of node:       241.5042 deg
Eccentricity:    0.0014719
Arg of perigee:   091.4122 deg
Mean anomaly:     268.8764 deg
Mean motion:   14.63501577 rev/day
Decay rate:        6.4e-07 rev/day^2
Epoch rev:           39075
Checksum:              318

Satellite: VO-52
Catalog number: 28650
Epoch time:      11020.70167305
Element set:     698
Inclination:      097.6650 deg
RA of node:       070.2952 deg
Eccentricity:    0.0025813
Arg of perigee:   285.6548 deg
Mean anomaly:     074.1826 deg
Mean motion:   14.81895271 rev/day
Decay rate:       5.13e-06 rev/day^2
Epoch rev:           30890
Checksum:              312

Satellite: SO-67
Catalog number: 35870
Epoch time:      11020.80279384
Element set:     488
Inclination:      097.3040 deg
RA of node:       068.8352 deg
Eccentricity:    0.0004506
Arg of perigee:   065.8715 deg
Mean anomaly:     064.7846 deg
Mean motion:   15.21297890 rev/day
Decay rate:       5.55e-06 rev/day^2
Epoch rev:            7453
Checksum:              326

Satellite: HO-68
Catalog number: 36122
Epoch time:      11020.63124818
Element set:      41
Inclination:      100.4396 deg
RA of node:       083.5595 deg
Eccentricity:    0.0007334
Arg of perigee:   199.7949 deg
Mean anomaly:     160.2879 deg
Mean motion:   13.16283748 rev/day
Decay rate:       -4.5e-07 rev/day^2
Epoch rev:            5282
Checksum:              307

/EX
SB KEPS @ AMSAT  $ORB11020.D
Orbital Elements  11020.MICROS

HR AMSAT ORBITAL ELEMENTS FOR THE MICROSATS
FROM WA5QGD FORT WORTH,TX January 20, 2011
Send Subscribe/unsubscribe to KEPS at http://www.amsat.org/mailman/listinfo/kep
BID: ORB11020.D
TO ALL RADIO AMATEURS BT

Satellite: UO-11
Catalog number: 14781
Epoch time:      11019.79844611
Element set:     448
Inclination:      098.0257 deg
RA of node:       076.8263 deg
Eccentricity:    0.0007946
Arg of perigee:   258.1384 deg
Mean anomaly:     101.8938 deg
Mean motion:   14.79882529 rev/day
Decay rate:       3.75e-06 rev/day^2
Epoch rev:           44384
Checksum:              344

Satellite: AO-16
Catalog number: 20439
Epoch time:      11020.86080010
Element set:      98
Inclination:      098.3645 deg
RA of node:       335.5566 deg
Eccentricity:    0.0010061
Arg of perigee:   239.4960 deg
Mean anomaly:     120.5229 deg
Mean motion:   14.31892236 rev/day
Decay rate:        1.8e-07 rev/day^2
Epoch rev:            9653
Checksum:              281

Satellite: LO-19
Catalog number: 20442
Epoch time:      11019.84564962
Element set:       5
Inclination:      098.3262 deg
RA of node:       339.5099 deg
Eccentricity:    0.0011185
Arg of perigee:   234.8945 deg
Mean anomaly:     125.1208 deg
Mean motion:   14.32119873 rev/day
Decay rate:       -5.1e-07 rev/day^2
Epoch rev:            9656
Checksum:              304

Satellite: AO-27
Catalog number: 22825
Epoch time:      11020.79501819
Element set:     729
Inclination:      098.5137 deg
RA of node:       328.4213 deg
Eccentricity:    0.0008542
Arg of perigee:   355.3843 deg
Mean anomaly:     004.7271 deg
Mean motion:   14.29323495 rev/day
Decay rate:       -3.5e-07 rev/day^2
Epoch rev:           90313
Checksum:              295

Satellite: IO-26
Catalog number: 22826
Epoch time:      11020.26138572
Element set:     466
Inclination:      098.5077 deg
RA of node:       328.4244 deg
Eccentricity:    0.0008789
Arg of perigee:   351.5970 deg
Mean anomaly:     008.5066 deg
Mean motion:   14.29583233 rev/day
Decay rate:        4.0e-07 rev/day^2
Epoch rev:           90317
Checksum:              307

Satellite: GO-32
Catalog number: 25397
Epoch time:      11019.64044397
Element set:     386
Inclination:      098.3184 deg
RA of node:       020.2139 deg
Eccentricity:    0.0001537
Arg of perigee:   028.8172 deg
Mean anomaly:     331.3083 deg
Mean motion:   14.23193746 rev/day
Decay rate:      -1.91e-06 rev/day^2
Epoch rev:           65083
Checksum:              296

